Tracking 18945 objects as of 20-Jan-2018
HD Live streaming from Space Station
objects crossing your sky now

COSMOS 1999

Track COSMOS 1999 now!
10-day predictions
COSMOS 1999 is classified as:


NORAD ID: 19790
Int'l Code: 1989-009F
Perigee: 1,391.1 km
Apogee: 1,422.4 km
Inclination: 82.6 °
Period: 113.8 minutes
Semi major axis: 7777 km
RCS: 1.0674 m2 (large)
Launch date: February 10, 1989
Source: Commonwealth of Independent States (former USSR) (CIS)
Launch site: PLESETSK MISSILE AND SPACE COMPLEX (PKMTR)
aabbcc
Your satellite tracking list
Your tracking list is empty




NASA's NSSDC Master Catalog

Two Line Element Set (TLE):
1 19790U 89009F   18020.21953951  .00000033  00000-0  11941-3 0  9993
2 19790  82.6198 127.3539 0020136  32.4340 336.3645 12.65665502337078
Source of the keplerian elements: AFSPC